カタログに戻る

STARLINK-34203

運用中通信VLEO
NORAD 64246·PAYLOAD·🇺🇸 United States

打ち上げ Jun 3, 2025 から Cape Canaveral Space Force Station

Loading…

次のパス (今後24時間)

TLE

最新Source: CelesTrak SupGP

元期: Sep 14, 2026, 21:41 UTC

1 64246C 25119P   26257.90395833 -.00022242  00000+0 -80577-3 0  2572
2 64246  43.0016 318.3828 0001567 265.5895 259.3576 15.27582123    14

AllMySatでSTARLINK-34203をリアルタイム追跡

Download on the App Store